This demonstration page uses our WeatherBlox Daily Observations layout. Learn more.

Left ArrowRight Arrow

Hourly Observations for January 18, 2020

Temp ( °F °C ) Dew Point ( °F °C ) Humidity (%) Winds ( mph kmh ) Pressure ( in mb ) Visibility ( mi km ) Precip ( " mm )
12:53 am 00:53 Partly Cloudy 45 7.2 21 -6.1 39 39 E 9 15 30.50 1033 10 16 0.00 0.00
1:53 am 01:53 Cloudy 45 7.2 21 -6.1 39 39 E 10 17 30.48 1032 10 16 0.00 0.00
2:06 am 02:06 Cloudy 45 7.2 22 -5.6 40 40 ESE 8 13 30.49 1033 10 16 0.00 0.00
2:19 am 02:19 Cloudy 44 6.7 22 -5.6 41 41 E 12 19 30.49 1033 10 16 0.00 0.00
2:53 am 02:53 Cloudy 44 6.7 24 -4.4 45 45 E 10 17 30.45 1031 10 16 0.00 0.00
3:53 am 03:53 Cloudy 44 6.7 24 -4.4 45 45 VRB 3 6 30.45 1031 10 16 0.00 0.00
4:53 am 04:53 Cloudy 43 6.1 24 -4.4 47 47 E 5 7 30.44 1031 10 16 0.00 0.00
5:53 am 05:53 Cloudy 43 6.1 24 -4.4 47 47 E 8 13 30.42 1030 10 16 0.00 0.00
6:53 am 06:53 Cloudy 43 6.1 26 -3.3 51 51 ESE 7 11 30.42 1030 10 16 0.00 0.00
7:53 am 07:53 Cloudy 43 6.1 28 -2.2 56 56 ESE 7 11 30.43 1030 10 16 0.00 0.00
8:53 am 08:53 Cloudy 43 6.1 29 -1.7 58 58 ESE 7 11 30.40 1029 10 16 0.00 0.00
9:53 am 09:53 Cloudy 44 6.7 30 -1.1 58 58 SE 10 17 30.38 1029 10 16 0.00 0.00
10:53 am 10:53 Cloudy 46 7.8 32 0 58 58 SE 6 9 30.37 1028 10 16 0.00 0.00
11:53 am 11:53 Cloudy 48 8.9 35 1.7 61 61 SE 8 13 30.32 1027 10 16 0.00 0.00
12:23 pm 12:23 Cloudy with Rain 47 8.3 38 3.3 71 71 SSE 6 9 30.34 1027 4 6 0.02 0.51
12:36 pm 12:36 Cloudy with Light Rain 47 8.3 40 4.4 77 77 Calm 30.34 1027 10 16 0.02 0.51
12:53 pm 12:53 Cloudy 47 8.3 40 4.4 77 77 ENE 3 6 30.30 1026 10 16 0.02 0.51
1:53 pm 13:53 Cloudy 49 9.4 41 5 74 74 S 6 9 30.25 1024 10 16 0.00 0.00
2:03 pm 14:03 Cloudy with Rain 49 9.4 42 5.6 77 77 S 5 7 30.25 1024 7 11 0.01 0.25
2:19 pm 14:19 Cloudy with Rain 49 9.4 43 6.1 80 80 ESE 3 6 30.23 1024 6 10 0.04 1.02
2:36 pm 14:36 Cloudy 49 9.4 44 6.7 83 83 SSE 3 6 30.22 1023 10 16 0.04 1.02
2:53 pm 14:53 Cloudy 49 9.4 44 6.7 83 83 SE 7 11 30.19 1022 10 16 0.04 1.02
3:53 pm 15:53 Cloudy 50 10 46 7.8 86 86 E 3 6 30.19 1022 10 16 0.00 0.00
4:53 pm 16:53 Cloudy 51 10.6 46 7.8 83 83 Calm 30.17 1022 10 16 0.00 0.00
5:53 pm 17:53 Cloudy 51 10.6 47 8.3 86 86 ESE 3 6 30.16 1021 10 16 0.00 0.00
6:33 pm 18:33 Cloudy with Light Rain 50 10 48 8.9 93 93 N 5 7 30.17 1022 7 11 0.01 0.25
6:53 pm 18:53 Cloudy with Light Rain 50 10 48 8.9 93 93 NNE 5 7 30.15 1021 7 11 0.02 0.51
7:40 pm 19:40 Cloudy with Rain 50 10 48 8.9 93 93 Calm 30.15 1021 3 5 0.03 0.76
7:53 pm 19:53 Cloudy with Heavy Rain 49 9.4 48 8.9 97 97 Calm 30.13 1020 3 4 0.07 1.78
8:02 pm 20:02 Cloudy with Light Rain 49 9.4 48 8.9 97 97 Calm 30.14 1021 3 5 0.01 0.25
8:53 pm 20:53 Cloudy with Light Rain 49 9.4 48 8.9 97 97 Calm 30.12 1020 3 5 0.08 2.03
9:00 pm 21:00 Cloudy with Light Rain 49 9.4 48 8.9 97 97 SE 3 6 30.13 1020 3 5 0.00 0.00
9:40 pm 21:40 Cloudy with Rain 50 10 49 9.4 96 96 SSW 3 6 30.11 1020 3 4 0.05 1.27
9:53 pm 21:53 Cloudy with Rain 50 10 49 9.4 96 96 NNW 6 9 30.11 1020 3 4 0.08 2.03
10:02 pm 22:02 Cloudy with Rain 50 10 48 8.9 93 93 NNW 9 15 30.13 1020 3 5 0.01 0.25
10:12 pm 22:12 Cloudy with Heavy Rain 50 10 50 10 100 100 NNE 5 7 30.13 1020 2 3 0.07 1.78
10:22 pm 22:22 Cloudy with Rain 51 10.6 50 10 96 96 NE 5 7 30.12 1020 4 6 0.08 2.03
10:36 pm 22:36 Cloudy with Rain 51 10.6 50 10 96 96 NE 3 6 30.12 1020 3 4 0.11 2.79
10:53 pm 22:53 Cloudy with Light Rain 51 10.6 50 10 96 96 Calm 30.10 1019 4 6 0.15 3.81
11:06 pm 23:06 Cloudy with Rain 51 10.6 49 9.4 92 92 SSE 6 9 30.11 1020 3 4 0.04 1.02
11:16 pm 23:16 Cloudy with Light Rain 51 10.6 51 10.6 100 100 Calm 30.10 1019 3 5 0.05 1.27
11:25 pm 23:25 Cloudy with Rain 51 10.6 51 10.6 100 100 Calm 30.10 1019 4 6 0.06 1.52
11:37 pm 23:37 Cloudy with Light Rain 51 10.6 49 9.4 92 92 Calm 30.10 1019 4 6 0.07 1.78
11:53 pm 23:53 Cloudy with Light Rain 51 10.6 50 10 96 96 Calm 30.09 1019 5 8 0.07 1.78

Powered by AerisWeather